Location: Falkner
(32.6954°N, 86.0502°W)
Time: 14:32:20
(UTC+00:00)

SAR-Lupe-4 - Pass Details

Date: 29 October 2020
Orbit: 481 x 484 km, 98.2° (Epoch: 25 November)

Event Time Altitude Azimuth Distance (km) Brightness Sun altitude
Rises 23:24:53 0° 15° (NNE) 2,545 6.9 -6.8°
Reaches altitude 10° 23:26:57 10° 17° (NNE) 1,662 6.0 -7.2°
Maximum altitude 23:30:31 70° 102° (ESE) 516 3.5 -8.0°
Drops below altitude 10° 23:34:02 10° 186° (S) 1,651 6.5 -8.7°
Sets 23:36:06 0° 189° (S) 2,527 7.5 -9.1°
